sat.trackr.live / text

‹ back to catalog

NUVIEW BRAVO

NORAD 62457 · 2024-252D

PAYLOAD ACTIVE UNKNOWN

§ Identity

Operator
Country
UK
Launch date
2024-12-29
Launch site
AFETR
Launch vehicle
Mass (kg)
RCS (m²)

Purposes: comms

External: N2YO · Heavens-Above · Gunter

§ Orbital elements

Epoch: 2026-05-25T03:02:38.776416Z

Period
1,436.10 min
Inclination
0.0682°
Eccentricity
0.0001776
Mean motion
1.00271725 rev/d
Perigee alt
35,779.1 km
Apogee alt
35,794.1 km
Semi-major
42,164.7 km
B*
0.0000e+0
RAAN
139.3485°
Arg perigee
327.3177°
Mean anomaly
98.6021°
Rev number
356

§ Raw data

NUVIEW BRAVO1 62457U 24252D   26145.12683769 -.00000217  00000+0  00000+0 0  99982 62457   0.0682 139.3485 0001776 327.3177  98.6021  1.00271725  3561

JSON: /api/v1/satellites/62457 · /tle

For live sub-satellite position, see the globe view (requires WebGL).

§ Visibility from observer

Set your observer location to see the next 7 days of passes ≥ 10°. The values pass through the URL so the page stays shareable.

No JS? Fill the form by hand. The geolocation button needs JavaScript.